Location: Montreal
(45.5000°N, 73.5833°W)
Time: 01:34:43
(UTC-05:00)

N. Korean satellite - Pass Details

Date: 09 October 2017
Orbit: 461 x 513 km, 97.2° (Epoch: 14 December)

Event Time Altitude Azimuth Distance (km) Brightness Sun altitude
Rises 19:49:47 0° 203° (SSW) 2,565 10.4 -16.7°
Maximum altitude 19:54:54 18° 267° (W) 1,259 9.7 -17.6°
Drops below altitude 10° 19:57:24 10° 312° (NW) 1,667 10.1 -18.0°
Sets 19:59:59 0° 332° (NNW) 2,541 10.8 -18.4°
